Location: ????????
(55.3155°N, 39.2900°E)
Time: 23:00:01
(UTC+00:00)

NOAA 11 - Pass Details

Date: 14 April 2024
Orbit: 833 x 848 km, 98.5° (Epoch: 23 May)

Event Time Altitude Azimuth Distance (km) Brightness Sun altitude
Rises 01:17:24 0° 15° (NNE) 3,398 8.1 -9.0°
Reaches altitude 10° 01:19:46 10° 16° (NNE) 2,461 7.4 -8.7°
Maximum altitude 01:25:14 88° 287° (WNW) 846 4.2 -8.0°
Drops below altitude 10° 01:30:42 10° 199° (SSW) 2,453 6.2 -7.4°
Sets 01:33:03 0° 199° (SSW) 3,386 6.9 -7.1°
